map of LSE home
LSE - Airport
Location
City:  La Crosse, Wisconsin, United States
Name:La Crosse Regional
ICAO:KLSE
IATA:LSE
FAA LID:LSE

Details
Type:Airport (Part 139 Class I)
Use:Public/Civil
Latitude:4352'45"N (43.879278)
Longitude:9115'24"W (-91.256638)
Datum:WGS 1984
Elevation:655 ft (200 m)
Variation:1.29W (WMM2015 magnetic declination)
-0.07 annual change
Runways:3
Longest:8742 × 150 ft (2665 × 45.5 m), paved

Time
Time Zone:UTC-6 (DST-5)
Local Time:

Weather
METAR:KLSE 232253Z 17010KT 10SM CLR 33/17 A2996 RMK AO2 SLP133 T03330172
TAF:KLSE 232320Z 2400/2424 16006KT P6SM FEW250
FM241700 17008KT P6SM FEW060

Related Locations
Nearby:
Farthest:MQZ: 10871 mi / 17496 km
Margaret River [Margaret River Airport], WA, AU

Find:

   beyond  
but within

Other Information
Maps:
Delays:
NOTAMs:
Links:
Sources:

  
flag of United States
flag of Wisconsin
  

Airport Diagram

Airport diagram for LSE

Airport diagram PDF

Sectional Chart

Flight Planning
at skyvector.com

Satellite Image

Google Maps Satellite view

 

Copyright © 2004-2017 Karl L. Swartz. All rights reserved.
The Great Circle Mapper name and logo are trademarks of the Great Circle Mapper.
All other trademarks mentioned herein belong to their respective owners.
Please see credits for attibutions and further copyright information.

  Follow gcmap on Facebook Follow gcmap on Twitter Follow gcmap on Google+ GCmap on LinkedIn

hCard Microformat

Geo Microformat